Hourly Observations for September 14, 2018

Temp ( °F °C ) Dew Point ( °F °C ) Humidity (%) Winds ( mph kmh ) Pressure ( in mb ) Visibility ( mi km ) Precip ( " mm )
12:53 am 00:53 Clear 72 22.2 68 20 87 87 Calm 29.88 1012 9 14.484096 0 0
1:53 am 01:53 Clear 72 22.2 67 19.4 84 84 N 3 6 29.88 1012 10 16.09344 0 0
2:53 am 02:53 Clear 71 21.7 67 19.4 87 87 Calm 29.91 1013 9 14.484096 0 0
3:53 am 03:53 Clear 70 21.1 67 19.4 90 90 Calm 29.91 1013 8 12.874752 0 0
4:53 am 04:53 Clear 68 20 66 18.9 93 93 Calm 29.94 1014 7 11.265408 0 0
5:53 am 05:53 Clear with Mist and Fog 68 20 66 18.9 93 93 Calm 29.94 1014 5 8.04672 0 0
6:53 am 06:53 Sunny with Mist and Fog 69 20.6 66 18.9 90 90 Calm 29.94 1014 4 6.437376 0 0
7:53 am 07:53 Hazy 74 23.3 69 20.6 85 85 Calm 29.97 1015 6 9.656064 0 0
8:53 am 08:53 Sunny 80 26.7 70 21.1 71 71 SSW 7 11 29.94 1014 8 12.874752 0 0
9:53 am 09:53 Sunny 85 29.4 71 21.7 63 63 Calm 29.97 1015 7 11.265408 0 0
10:53 am 10:53 Sunny 89 31.7 72 22.2 57 57 SW 5 7 29.97 1015 8 12.874752 0 0
11:53 am 11:53 Mostly Cloudy 92 33.3 71 21.7 51 51 SW 8 13 29.97 1015 8 12.874752 0 0
12:53 pm 12:53 Cloudy with Light Rain 77 25 73 22.8 88 88 N 10 17 30 1016 3 4.828032 0.001 0.001
1:53 pm 13:53 Mostly Cloudy 79 26.1 73 22.8 82 82 WNW 7 11 29.97 1015 8 12.874752 0.001 0.001
2:53 pm 14:53 Cloudy 80 26.7 72 22.2 76 76 Calm 29.94 1014 9 14.484096 0 0
3:53 pm 15:53 Sunny 85 29.4 73 22.8 68 68 WSW 3 6 29.91 1013 10 16.09344 0 0
4:53 pm 16:53 Sunny 86 30 76 24.4 72 72 E 3 6 29.91 1013 9 14.484096 0 0
5:53 pm 17:53 Sunny 85 29.4 75 23.9 72 72 ESE 5 7 29.91 1013 8 12.874752 0 0
6:53 pm 18:53 Sunny 82 27.8 74 23.3 77 77 SE 3 6 29.91 1013 8 12.874752 0 0
7:53 pm 19:53 Clear 76 24.4 73 22.8 91 91 Calm 29.94 1014 7 11.265408 0 0
8:53 pm 20:53 Clear 78 25.6 74 23.3 87 87 Calm 29.94 1014 7 11.265408 0 0
9:53 pm 21:53 Clear with Mist and Fog 74 23.3 72 22.2 94 94 E 3 6 29.94 1014 6 9.656064 0 0
10:53 pm 22:53 Clear 77 25 72 22.2 85 85 SSE 6 9 29.94 1014 8 12.874752 0 0
11:53 pm 23:53 Clear 78 25.6 72 22.2 82 82 S 6 9 29.94 1014 8 12.874752 0 0

Powered by AerisWeather

Site Deisgn Provided by Innovations Branding House, Paducah, KY